AO-07 1 07530U 74089B 16182.55594553 -.00000028 00000-0 10138-3 0 9999 2 07530 101.5752 152.9868 0011571 286.2348 183.6309 12.53621946904793 FO-29 1 24278U 96046B 16182.33322265 -.00000028 00000-0 68379-5 0 9991 2 24278 98.5855 105.8305 0350580 168.4381 192.5080 13.53068660981291 RS-22 1 27939U 03042A 16182.84435870 .00000215 00000-0 47217-4 0 9999 2 27939 97.8894 333.9933 0011810 262.5243 97.4627 14.66416683681820 HO-68 1 36122U 09072B 16182.66336307 -.00000059 00000-0 -43517-4 0 9994 2 36122 100.1404 217.9744 0007369 328.3357 31.7310 13.16334711314380 AO-73 1 39444U 13066AE 16182.80794097 .00000289 00000-0 42954-4 0 9999 2 39444 97.6800 235.7211 0058180 337.8173 22.0523 14.81087058139594 EO-79 1 40025U 14033R 16182.70955794 .00000297 00000-0 38380-4 0 9990 2 40025 97.9275 88.1665 0013383 26.0438 334.1449 14.88032301110210 XW-2A 1 40903U 15049E 16182.72826634 .00002495 00000-0 72057-4 0 9996 2 40903 97.4454 198.0424 0017739 88.2235 332.3997 15.36507415 43633 XW-2C 1 40906U 15049H 16182.61246091 .00001177 00000-0 68948-4 0 9990 2 40906 97.4523 189.3988 0015641 358.0636 118.4426 15.13636664 43032 LILACSAT-2 1 40908U 15049K 16182.56680785 .00000768 00000-0 47591-4 0 9994 2 40908 97.4579 189.2419 0016434 350.8924 125.9082 15.12572683 43001 XW-2E 1 40909U 15049L 16182.74301421 .00001753 00000-0 98227-4 0 9999 2 40909 97.4531 189.8016 0014628 0.5689 52.3231 15.14620003 43077 UO-11 1 14781U 84021B 16182.19314641 .00000111 00000-0 20079-4 0 9998 2 14781 97.7483 233.7989 0007034 272.7932 87.2477 14.82758812738186 LO-19 1 20442U 90005G 16182.40355946 -.00000015 00000-0 10612-4 0 9991 2 20442 98.5438 117.1617 0012932 105.4500 254.8114 14.32820772381246 AO-27 1 22825U 93061C 16182.86942381 -.00000013 00000-0 12618-4 0 9994 2 22825 98.7602 139.2011 0007283 279.9541 80.0819 14.29959661187191 IO-26 1 22826U 93061D 16182.49101550 .00000001 00000-0 17933-4 0 9990 2 22826 98.7545 138.9429 0007775 270.8839 89.1452 14.30284643187302 GO-32 1 25397U 98043D 16182.42445956 -.00000014 00000-0 12620-4 0 9998 2 25397 98.5676 127.0230 0000779 9.7513 350.3681 14.23597061933742 NO-44 1 26931U 01043C 16182.55274860 -.00000033 00000-0 19032-4 0 9990 2 26931 67.0519 278.4259 0006561 260.0295 100.0065 14.30413282770059 SO-50 1 27607U 02058C 16182.18131887 -.00000005 00000-0 20241-4 0 9991 2 27607 64.5553 121.1424 0066834 214.2589 145.4194 14.75171298727183 CO-55 1 27844U 03031E 16182.89266590 .00000063 00000-0 48523-4 0 9990 2 27844 98.6920 190.9820 0008485 285.6859 74.3382 14.21958424674394 CO-57 1 27848U 03031J 16181.95397084 .00000050 00000-0 42607-4 0 9996 2 27848 098.7015 190.1550 0008505 298.3395 061.6924 14.21583813674123 CO-65 1 32785U 08021C 16182.82362868 .00000284 00000-0 36931-4 0 9997 2 32785 97.6018 216.4725 0011726 249.4436 110.5523 14.87587435442654 PRISM 1 33493U 09002B 16182.85884833 .00000983 00000-0 95596-4 0 9996 2 33493 98.2159 43.5964 0016079 155.4123 204.7847 14.94975765403278 TISAT-1 1 36799U 10035E 16182.82062281 .00000383 00000-0 45939-4 0 9998 2 36799 98.0317 293.3088 0013486 46.4426 313.7909 14.89844731323453 ALMASAT-1 1 38078U 12006B 16182.89515985 .00016726 33968-5 24008-3 0 9996 2 38078 69.4454 345.2329 0378565 82.1205 282.2744 15.03674944231648 DUCHIFAT-1 1 40021U 14033M 16182.72035458 .00000429 00000-0 51139-4 0 9998 2 40021 97.9306 89.2879 0013989 24.3003 335.8871 14.89334488110276 NANOSATCBR1 1 40024U 14033Q 16182.70660308 .00000398 00000-0 48612-4 0 9994 2 40024 97.9281 88.6567 0013196 24.6579 335.5265 14.88740082110240 DTUSAT-2 1 40030U 14033W 16182.69431134 .00000308 00000-0 40009-4 0 9995 2 40030 97.9253 87.5919 0012693 20.5050 339.6673 14.87665448110187 ANTELSAT 1 40034U 14033AA 16182.67665351 .00000311 00000-0 54575-4 0 9994 2 40034 97.9024 70.6224 0059231 344.1155 15.8196 14.73405787109161 MET-2/21 1 22782U 93055A 16181.90390457 .00000052 00000-0 33591-4 0 9999 2 22782 82.5503 303.1371 0021909 342.3042 135.8372 13.83790254152978 NOAA-15 1 25338U 98030A 16182.48654581 .00000082 00000-0 53448-4 0 9998 2 25338 98.7826 186.6626 0011331 142.5138 217.6833 14.25737162942880 NOAA-18 1 28654U 05018A 16182.52334322 .00000076 00000-0 66897-4 0 9994 2 28654 99.1968 189.8010 0013951 342.2528 17.8153 14.12290957572617 NOAA-19 1 33591U 09005A 16182.47950329 .00000065 00000-0 60358-4 0 9999 2 33591 99.0409 139.3619 0013908 177.2420 182.8830 14.12085031381018 HUBBLE 1 20580U 90037B 16182.22215279 .00000454 00000-0 17224-4 0 9995 2 20580 28.4688 172.6365 0002692 353.7026 189.1634 15.08406571237087 ISS 1 25544U 98067A 16182.98592762 .00003102 00000-0 52955-4 0 9992 2 25544 51.6443 349.1928 0000893 24.3058 119.2707 15.54714746 7135 CO-58 1 28895U 05043F 16182.15714772 .00000176 00000-0 42803-4 0 9991 2 28895 97.8331 355.4414 0017089 172.8633 187.2816 14.63211792569005 CAPE1 1 31130U 07012P 16182.87071592 .00000133 00000-0 38890-4 0 9994 2 31130 98.0337 137.8230 0095721 212.8492 146.6734 14.55944310488126 AAUSAT2 1 32788U 08021F 16182.10944019 .00000373 00000-0 40863-4 0 9993 2 32788 97.6025 224.5548 0011074 221.2169 138.8216 14.93248062443127 DO-64 1 32789U 08021G 16182.17592649 .00002015 00000-0 15278-3 0 9995 2 32789 97.6060 241.1733 0012815 212.0697 147.9750 15.03307745443957 CO-66 1 32791U 08021J 16182.55489735 .00000328 00000-0 39729-4 0 9994 2 32791 97.6025 219.4225 0012219 237.8932 122.1101 14.89793342442780 RS-30 1 32953U 08025A 16182.72482609 .00000010 00000-0 -13620-7 0 9994 2 32953 82.5029 98.2360 0018938 336.6770 23.3448 12.43070220367763 JUGNU 1 37839U 11058B 16182.85440032 .00000297 00000-0 16514-4 0 9998 2 37839 19.9623 60.7010 0018930 270.5210 171.2568 14.12544902243960 SRMSAT 1 37841U 11058D 16182.90876456 .00000289 00000-0 13400-4 0 9992 2 37841 19.9721 94.8363 0011962 182.2375 246.0049 14.10543454243627 AO-71 1 37854U 11061E 16182.82340488 .00002102 00000-0 12355-3 0 9995 2 37854 101.7027 232.3025 0172889 33.5874 327.6155 15.02293404254144 HRBE 1 37855U 11061F 16182.85263766 .00002053 00000-0 11840-3 0 9995 2 37855 101.7171 230.4082 0186659 38.0648 323.3581 15.01221683254040 HORYU-2 1 38340U 12025D 16182.53550134 .00000262 00000-0 46979-4 0 9991 2 38340 98.3554 168.5176 0011142 336.8634 23.2070 14.75047560221446 RS-40 1 38735U 12041C 16182.91296912 .00000040 00000-0 21992-3 0 9991 2 38735 82.4726 183.2094 0018343 75.0033 285.3070 12.42572973178071 BEESAT-3 1 39134U 13015E 16182.24286163 .00001488 00000-0 86993-4 0 9990 2 39134 64.8697 280.8981 0009120 293.5490 66.4677 15.16037138176096 BEESAT-2 1 39136U 13015G 16181.74238889 .00001431 00000-0 78941-4 0 9990 2 39136 64.8724 288.6927 0008600 293.4700 66.6017 15.13691638175907 ZACUBE-1 1 39417U 13066B 16182.79644152 .00000229 00000-0 35863-4 0 9998 2 39417 97.6788 235.0867 0059036 339.8507 20.0376 14.80414969140784 TRITON-1 1 39427U 13066M 16182.52443362 .00000215 00000-0 42610-4 0 9993 2 39427 97.6664 214.9734 0115616 35.3553 325.5249 14.67205895139470 GOMX-1 1 39430U 13066Q 16182.76930837 .00000298 00000-0 63010-4 0 9999 2 39430 97.6689 202.6822 0153964 72.8824 288.9156 14.58611530138709 LO-74 1 39440U 13066AA 16182.71693065 .00000228 00000-0 39315-4 0 9998 2 39440 97.6725 227.0996 0081076 0.9850 359.1505 14.75176471140272 SPROUT 1 39770U 14029E 16182.09647013 .00000883 00000-0 10861-3 0 9998 2 39770 97.8714 279.1794 0010318 49.0409 311.1709 14.85429364113858 EO-80 1 40032U 14033Y 16182.72101554 .00000310 00000-0 40252-4 0 9994 2 40032 97.9261 87.6279 0012645 20.7712 339.4016 14.87598892110189 VELOX-1 1 40057U 14034E 16182.75114022 .00000416 00000-0 67050-4 0 9991 2 40057 98.1948 271.7545 0012446 102.4048 257.8558 14.76731158107881 DAURIA DX 1 1 40071U 14037C 16182.72125842 .00000179 00000-0 30550-4 0 9990 2 40071 98.3313 274.1500 0009815 99.6189 260.6127 14.80829727106958 UKUBE-1 1 40074U 14037F 16182.83942365 .00000401 00000-0 56381-4 0 9990 2 40074 98.3359 276.4648 0006015 100.7043 259.4856 14.83098285107092 HODOYOSHI-1 1 40299U 14070B 16182.75194977 .00000953 00000-0 45587-4 0 9993 2 40299 97.4291 264.4530 0011947 241.8751 235.0187 15.21361201 91493 CHUBUSAT-1 1 40300U 14070C 16182.77980786 .00000809 00000-0 40778-4 0 9996 2 40300 97.4246 262.6720 0019477 249.6287 232.1550 15.19870861 91398 QSAT-EOS 1 40301U 14070D 16182.78638204 .00001780 00000-0 82305-4 0 9994 2 40301 97.4188 262.0290 0027616 249.1582 226.6027 15.21169590 91375 FIREBIRD FU3 1 40377U 15003B 16182.82864876 .00002734 00000-0 12565-3 0 9995 2 40377 99.0872 292.2387 0144741 84.9179 276.8549 15.12669465 77842 FIREBIRD FU4 1 40378U 15003C 16182.82493738 .00002655 00000-0 12202-3 0 9991 2 40378 99.0874 292.2492 0144958 84.8693 276.9059 15.12680488 77847 GRIFEX 1 40379U 15003D 16182.84316565 .00002604 00000-0 12470-3 0 9997 2 40379 99.0881 291.3833 0149045 88.4992 273.3300 15.10882270 77794 NO-84 1 40654U 15025D 16182.45773934 .00011093 00000-0 23318-3 0 01606 2 40654 054.9951 359.9102 0209950 106.0473 256.3790 15.25822119026061 NO-83 1 40655U 15025E 16182.45759142 .00016519 00000-0 31432-3 0 01752 2 40655 054.9868 353.1005 0191592 108.8987 253.2783 15.30915148026136 DEORBITSAIL 1 40719U 15032E 16182.51270408 .00000436 00000-0 71405-4 0 9991 2 40719 98.0159 74.0275 0016131 189.3209 170.7703 14.75568032 52456 NUDT-PHONESAT 1 40900U 15049B 16182.76237573 .00002628 00000-0 13623-3 0 9996 2 40900 97.4447 190.2483 0015528 17.0566 37.0075 15.16953746 43133 XW-2D 1 40907U 15049J 16182.81336981 .00000946 00000-0 56092-4 0 9991 2 40907 97.4484 189.4685 0015044 356.2195 129.8694 15.13678587 43067 XW-2F 1 40910U 15049M 16182.84218928 .00001463 00000-0 83613-4 0 9992 2 40910 97.4524 189.6980 0015919 354.0058 127.7831 15.14152194 42961 XW-2B 1 40911U 15049N 16182.73451588 .00001221 00000-0 71370-4 0 9991 2 40911 97.4535 189.5711 0014745 356.2648 62.3522 15.13663248 42956 DCBB 1 40912U 15049P 16182.74733307 .00001848 00000-0 99131-4 0 9995 2 40912 97.4528 190.4142 0016117 350.6965 63.6340 15.16101796 43011 TW-1C 1 40926U 15051B 16182.74421103 .00005886 00000-0 16601-3 0 9997 2 40926 97.2742 219.5151 0014195 8.7538 84.0722 15.36690416 42841 TW-1A 1 40928U 15051D 16182.78400995 .00002752 00000-0 87467-4 0 9997 2 40928 97.2692 218.6479 0014705 25.8676 63.4668 15.33376300 42806 IO-86 1 40931U 15052B 16182.65654083 .00000679 00000-0 55223-5 0 9999 2 40931 5.9991 219.1101 0013733 310.5398 49.3534 14.76466637 40926 GomX-3 1 40949U 98067HA 16182.84310599 .00029507 00000-0 15480-3 0 9997 2 40949 51.6310 323.6029 0004198 280.8921 79.1608 15.80502660 42225 LQSat 1 40958U 15057A 16182.76259281 .00000070 00000-0 18750-4 0 9994 2 40958 98.0136 257.4791 0019572 109.2237 251.1092 14.72876310 39380 AO-85 1 40967U 15058D 16182.34335955 .00000209 00000-0 40983-4 0 01766 2 40967 064.7753 205.9390 0202683 201.3082 157.9465 14.75049840025214 ATHENOXAT-1 1 41168U 15077C 16182.38633652 .00002239 00000-0 93886-4 0 9998 2 41168 14.9835 216.5950 0012196 184.1645 281.3538 15.10024644 29758 ChubuSat-2 1 41338U 16012B 16182.23442111 .00000343 00000-0 20398-4 0 9991 2 41338 31.0035 187.0143 0013971 176.7451 183.3278 14.99404810 20115 ChubuSat-3 1 41339U 16012C 16182.41319394 .00000356 00000-0 21308-4 0 9994 2 41339 31.0081 185.6174 0013977 184.7660 175.2867 14.99633849 20112 Horyu-4 1 41340U 16012D 16182.38111573 .00000465 00000-0 29557-4 0 9996 2 41340 31.0056 185.3117 0014297 189.2716 170.7655 15.00049335 20139 OUFTI-1 1 41458U 16025C 16182.81564593 .00003045 00000-0 17425-3 0 9999 2 41458 98.2118 194.0856 0177210 22.8882 338.0114 15.01162624 9821 [email protected] 1 41459U 16025D 16182.88210641 .00002888 00000-0 16571-3 0 9994 2 41459 98.2112 194.1571 0177024 22.7188 338.1746 15.01148711 9836 AAUSAT4 1 41460U 16025E 16182.67796984 .00003965 00000-0 22522-3 0 9992 2 41460 98.2094 193.9489 0175942 23.3306 337.5759 15.01342187 9805 MinXSS 1 41474U 98067HU 16182.73281179 .00018825 00000-0 25665-3 0 9997 2 41474 51.6456 349.8507 0003110 191.8608 267.7591 15.57546332 7042 CADRE 1 41475U 98067HV 16182.71637983 .00028146 00000-0 36664-3 0 9992 2 41475 51.6426 349.7574 0002375 222.9527 225.7643 15.58504204 7046 STMSat 1 1 41476U 98067HW 16182.73083146 .00018829 00000-0 25666-3 0 9998 2 41476 51.6444 349.8484 0002616 185.1070 267.1108 15.57551963 6957 NODES 1 1 41477U 98067HX 16182.73999449 .00013709 00000-0 19291-3 0 9990 2 41477 51.6443 349.9034 0002982 178.3332 275.6597 15.56968725 6953 NODES 2 1 41478U 98067HY 16182.74075065 .00013522 00000-0 19062-3 0 9990 2 41478 51.6437 349.9071 0002690 175.3545 278.6181 15.56933540 6956 NuSat1-LUSEX 1 41557U 16033B 16182.82124418 .00001756 00000-0 72365-4 0 9999 2 41557 97.4967 255.9889 0015370 159.9766 307.7830 15.25366785 4832 NuSat2 1 41558U 16033C 16182.82351384 .00001780 00000-0 73597-4 0 9999 2 41558 97.4992 255.9952 0015093 158.1144 306.0541 15.25226057 4833 Lapan A3 1 41603U 16040E 16182.78396804 .00000121 00000-0 91003-5 0 9990 2 41603 97.5100 241.8944 0012497 214.4424 240.4998 15.19047541 1301 Swayam 1 41607U 16040J 16182.10860952 .00001716 00000-0 85354-4 0 9992 2 41607 97.5069 241.2152 0013840 219.9019 140.1199 15.18919178 1129 /EX